Weather History for KADG - January, 2012

Change the Weather History Date:

Tuesday, January 31, 2012

  Actual Average Record
Temperature  
Mean Temperature 44 °F -  
Max Temperature 53 °F 33 °F 60 °F (1989)
Min Temperature 36 °F 16 °F -7 °F (1981)
Degree Days  
Heating Degree Days 20    
Moisture  
Dew Point 38 °F    
Average Humidity 74    
Maximum Humidity 89    
Minimum Humidity 58    
Precipitation  
Precipitation 0.01 in - - ()
Sea Level Pressure  
Sea Level Pressure 29.92 in    
Wind  
Wind Speed 10 mph (WSW)    
Max Wind Speed 16 mph    
Max Gust Speed 24 mph    
Visibility 10 miles    
Events Rain    
Averages and records for this station are not official NWS values.
T = Trace of Precipitation, MM = Missing Value Source: NWS Daily Summary

Daily Weather History Graph

Daily Weather History Graph

Search for Another Location

Airport or City:

Trip Planner

Search our weather history database for the weather conditions in past years. The results will help you decide how hot, cold, wet, or windy it might be!

Date:

Astronomy

Jan. 31, 2012 Rise Set
Actual Time 7:50 AM EST 5:49 PM EST
Civil Twilight 7:20 AM EST 6:19 PM EST
Nautical Twilight 6:47 AM EST 6:52 PM EST
Astronomical Twilight 6:14 AM EST 7:25 PM EST
Moon 11:38 AM EST (1/31) 1:37 AM EST (1/31)
Length of Visible Light 10h 58m
Length of Day
9h 59m
First Quarter, 55% of the Moon is Illuminated
Jan 31
First Quarter
Feb 7
Full
Feb 14
Last Quarter
Feb 21
New
Feb 29
First Quarter

Hourly Weather History & Observations

Time (EST) Temp. Windchill Dew Point Humidity Pressure Visibility Wind Dir Wind Speed Gust Speed Precip Events Conditions
12:53 AM 37.0 °F 31.6 °F 30.0 °F 76% 29.97 in 10.0 mi WSW 6.9 mph - N/A   Clear
1:53 AM 37.0 °F 31.6 °F 30.9 °F 79% 29.97 in 10.0 mi WSW 6.9 mph - N/A   Clear
2:53 AM 36.0 °F 31.1 °F 30.0 °F 79% 29.97 in 10.0 mi WSW 5.8 mph - N/A   Clear
3:53 AM 37.0 °F 31.6 °F 30.9 °F 79% 29.98 in 10.0 mi WSW 6.9 mph - N/A   Clear
4:53 AM 37.0 °F 31.6 °F 30.9 °F 79% 29.96 in 10.0 mi WSW 6.9 mph - N/A   Clear
5:53 AM 37.9 °F 31.5 °F 32.0 °F 79% 29.96 in 10.0 mi WSW 9.2 mph - N/A   Clear
7:53 AM 37.9 °F 31.5 °F 32.0 °F 79% 29.97 in 10.0 mi WSW 9.2 mph - N/A   Clear
8:53 AM 39.0 °F 31.8 °F 32.0 °F 76% 29.98 in 10.0 mi WSW 11.5 mph - N/A   Clear
10:53 AM 46.0 °F 40.2 °F 34.0 °F 63% 29.97 in 10.0 mi WSW 12.7 mph 19.6 mph N/A   Clear
11:53 AM 48.9 °F - 36.0 °F 61% 29.95 in 10.0 mi WSW 12.7 mph - N/A   Clear
12:53 PM 51.1 °F - 37.0 °F 59% 29.92 in 10.0 mi WSW 16.1 mph 24.2 mph N/A   Clear
1:42 PM 53.6 °F - 39.2 °F 58% 29.89 in 10.0 mi WSW 13.8 mph 20.7 mph N/A   Mostly Cloudy
1:53 PM 52.0 °F - 39.0 °F 61% 29.91 in 10.0 mi WSW 12.7 mph - N/A   Overcast
2:53 PM 53.1 °F - 41.0 °F 64% 29.89 in 10.0 mi SW 13.8 mph 20.7 mph N/A   Overcast
3:53 PM 51.1 °F - 41.0 °F 68% 29.88 in 10.0 mi SW 15.0 mph - N/A   Overcast
4:53 PM 51.1 °F - 42.1 °F 71% 29.87 in 10.0 mi SW 15.0 mph - N/A   Overcast
5:53 PM 51.1 °F - 42.1 °F 71% 29.88 in 10.0 mi SW 13.8 mph - N/A   Overcast
6:53 PM 50.0 °F - 42.1 °F 74% 29.89 in 10.0 mi WSW 9.2 mph - N/A   Overcast
7:53 PM 50.0 °F - 43.0 °F 77% 29.88 in 10.0 mi SW 16.1 mph - N/A   Overcast
8:53 PM 48.9 °F - 43.0 °F 80% 29.88 in 10.0 mi WSW 16.1 mph 23.0 mph N/A   Scattered Clouds
9:53 PM 48.9 °F - 44.1 °F 83% 29.88 in 10.0 mi SW 15.0 mph - N/A   Overcast
10:53 PM 48.0 °F - 45.0 °F 89% 29.87 in 9.0 mi WSW 11.5 mph - 0.00 in Rain Light Rain
11:26 PM 48.2 °F - 44.6 °F 87% 29.85 in 10.0 mi WSW 10.4 mph - 0.00 in   Overcast
11:53 PM 48.0 °F - 45.0 °F 89% 29.87 in 6.0 mi WSW 10.4 mph - 0.01 in Rain Light Rain